Tracking 25648 objects as of 16-May-2022
HD Live streaming from Space Station
objects crossing your sky now

COSMOS 2251 DEB

Track COSMOS 2251 DEB now!
10-day predictions


NORAD ID: 38056
Int'l Code: 1993-036BRN
Perigee: 754.8 km
Apogee: 1,244.1 km
Inclination: 73.9 °
Period: 105.0 minutes
Semi major axis: 7370 km
RCS: 0.0041 m2 (small)
Launch date: June 16, 1993
Source: Commonwealth of Independent States (former USSR) (CIS)
Launch site: PLESETSK MISSILE AND SPACE COMPLEX (PKMTR)

Note: This is SATELLITE DEBRIS
aabbcc
Your satellite tracking list
Your tracking list is empty




NASA's NSSDC Master Catalog

Two Line Element Set (TLE):
1 38056U 93036BRN 22134.94960086  .00004505  00000-0  33632-2 0  9990
2 38056  73.9247 320.0712 0331888 199.5099 159.3071 13.72024546462477
Source of the keplerian elements: AFSPC